Regional Weather Roundup
Issued by NWS

Home | Current Version | Previous Version | Text Only | Print | Product List | Glossary Off
Versions: 1 2 3 4 5 6 7 8 9 10 11 12 13 14 15 16 17 18 19 20 21 22 23 24 25 26 27 28 29 30 31 32 33 34 35 36 37 38 39 40 41 42 43 44 45 46 47 48 49 50

000
ASUS43 KFSD 221710
RWRSD

WEATHER ROUNDUP FOR SOUTH DAKOTA
NATIONAL WEATHER SERVICE SIOUX FALLS SD
1100 AM CST MON DEC 22 2014

NOTE: "FAIR" INDICATES FEW OR NO CLOUDS BELOW 12,000 FEET WITH NO
SIGNIFICANT WEATHER AND/OR OBSTRUCTIONS TO VISIBILITY.


SDZ001>005-009-010-012>017-221800-
NORTHWEST AND NORTH CENTRAL SOUTH DAKOTA

CITY           SKY/WX    TMP DP  RH WIND       PRES   REMARKS
BUFFALO          N/A     35  27  72 NW36G49   29.45S WCI  21
FAITH            N/A     34  29  82 NW23      29.49R WCI  22
MOBRIDGE       LGT SNOW  33  31  92 N12       29.42S FOG     WCI  24
$$

SDZ012>016-024>037-041>051-057-063-072>074-221800-
SOUTHWEST AND SOUTH CENTRAL SOUTH DAKOTA

CITY           SKY/WX    TMP DP  RH WIND       PRES   REMARKS
RAPID CTY ARPT PTSUNNY   42  21  43 NW29G47   29.53F
PIERRE         LGT RAIN  36  33  89 NW18      29.46S
CUSTER         PTSUNNY   31  17  56 NW16G26   29.55S WCI  20
PHILIP         CLOUDY    40  28  62 NW22G33   29.52S
PINE RIDGE     SUNNY     39  27  62 W20G26    29.57F
SPEARFISH      FAIR      37  23  56 W21G30    29.58S
WINNER         LGT RAIN  38  34  85 NW18      29.48S
$$

SDZ004>011-016>023-039-040-221800-
NORTHEAST SOUTH DAKOTA

CITY           SKY/WX    TMP DP  RH WIND       PRES   REMARKS
ABERDEEN       LGT SNOW  33  32  96 E3        29.44S VSB 1
WATERTOWN      CLOUDY    38  37  97 SE10      29.41F
SISSETON         N/A     36  36 100 S10       29.45F
$$

SDZ017-020-022-023-036>040-048>070-221800-
SOUTHEAST SOUTH DAKOTA

CITY           SKY/WX    TMP DP  RH WIND       PRES   REMARKS
SIOUX FALLS    LGT RAIN  40  40 100 SW6       29.45S FOG
HURON          CLOUDY    32  29  88 NW6       29.44S WCI  26
CHAMBERLAIN    DRIZZLE   35  34  96 NW12      29.47R WCI  27
MITCHELL       CLOUDY    36  35  96 W7        29.45F FOG
YANKTON        CLOUDY    39  36  87 W12       29.46F
$$

ABBREVIATIONS USED IN REMARKS
   TC - TEMPERATURE IN CELSIUS
  WCI - WIND CHILL INDEX
   HX - HEAT INDEX
  VSB - VISIBILITY




USA.gov is the U.S. government's official web portal to all federal, state and local government web resources and services.